Volver al catálogo

STARLINK-6212

ActivoComunicacionesVLEO
NORAD 57330·PAYLOAD·🇺🇸 United States

Lanzado Jul 16, 2023 desde Cape Canaveral Space Force Station

Loading…

Próximos Pases (próximas 24 horas)

TLE

ActualizadoSource: CelesTrak SupGP

Época: Sep 15, 2026, 02:22 UTC

1 57330C 23099C   26258.09909722 -.00015136  00000+0 -54826-3 0  2585
2 57330  43.0017 262.5642 0001825 270.8874 175.8447 15.27584203    18

Sigue STARLINK-6212 en tiempo real con AllMySat

Download on the App Store